www.pogodaiklimat.ru
ПОГОДА в Аплтоне
Время
(UTC), дата
08:35 20.11
08:55 20.11
09:15 20.11
09:35 20.11
09:55 20.11
10:15 20.11
10:20 20.11
10:45 20.11
11:45 20.11
12:45 20.11
13:45 20.11
14:45 20.11
15:45 20.11
16:45 20.11
17:45 20.11
18:45 20.11
19:45 20.11
20:45 20.11
21:45 20.11
22:45 20.11
23:45 20.11
00:45 20.11
01:45 20.11
02:45 20.11
03:45 20.11
03:55 20.11
04:15 20.11
04:35 20.11
04:55 20.11
05:15 21.11
05:35 21.11
05:55 21.11
06:15 21.11
06:35 21.11
06:55 21.11
07:15 21.11
07:35 21.11
07:55 21.11
08:15 21.11
08:35 21.11
08:55 21.11
09:15 21.11
09:35 21.11
09:55 21.11
10:15 21.11
10:20 21.11
10:45 21.11
11:45 21.11
Ветер
(напр.,м/с)
Видим. Явления Облачность Т
(С)
Тd
(С)
f
(%)
Тe
(С)
Тes
(С)
Комфортность P
(гПа)
Po
(гПа)
Тmin
(С)
Tmax
(С)
R
(мм)
R24
(мм)
S
(см)
0 8 км дымка 10/10 1050 м +1.0 0.0 93 -0 -0 983.5
ЮЗ 1 8 км дымка 10/10 1050 м +1.0 0.0 93 -2 -2 983.8
ЮЗ 1 8 км дымка 10/10 990 м +1.0 0.0 93 -2 -2 984.1
ЮЗ 3 8 км дымка 10/10 990 м +1.0 0.0 93 -4 -4 984.8
З 2 8 км дымка 10/10 990 м +1.0 0.0 93 -3 -3 984.8
З 1 8 км дымка 10/10 930 м +1.0 0.0 93 -2 -2 984.8
ЮЗ 2 8 км дымка 10/10 960 м +1.0 +1.0 100 -3 -3 984.8
З 2 6 км дымка 10/10 810 м +1.0 +1.0 100 -3 -3 985.1
0 6 км дымка 10/10 810 м +1.0 +1.0 100 -0 -0 985.5
нст 2 5 км дымка 10/10 870 м +1.0 +1.0 100 -3 -3 985.8
0 5 км дымка 10/10 870 м +2.0 +2.0 100 +1 +1 986.1
ЮЗ 3 8 км дымка 10/10 870 м +3.0 +2.0 93 -1 -1 986.4
нст 1 8 км дымка 10/10 870 м +3.0 +2.0 93 0 0 986.4
нст 1 11 км 8/8 870 м +4.0 +2.0 87 +2 +2 986.4
ЮЗ 4 11 км 8/8 420 м +7.0 +1.0 66 +4 +4 985.8
Ю 3 11 км 8/8 480 м +7.0 +1.0 66 +4 +4 985.1
ЮВ 3 16 км 5/5 540 м +6.0 +1.0 70 +3 +4 985.1
Ю 4 16 км 8/8 600 м +5.0 +1.0 75 +1 +1 985.1
Ю 3 16 км 8/5 600 м
[средняя]
+4.0 +1.0 81 0 0 985.1
ЮЗ 3 16 км 8/0 3300 м
[средняя]
+4.0 +2.0 87 0 0 984.8
ЮВ 3 16 км 10/0 3300 м
[средняя]
+4.0 +2.0 87 -0 -0 984.1
ЮВ 3 16 км 10/0 3300 м
[средняя]
+3.0 +2.0 93 -2 -2 983.5
ЮВ 4 16 км 10/0 3300 м
[средняя]
+4.0 +2.0 87 -1 -1 982.8
ЮВ 3 16 км 10/0 3300 м
[средняя]
+4.0 +2.0 87 -0 -0 982.2
Ю 4 16 км 10/0 3300 м
[средняя]
+4.0 +2.0 87 -1 -1 981.5
Ю 4 11 км 8/0 3300 м
[средняя]
+3.0 +2.0 93 -2 -2 981.5
ЮВ 4 11 км 10/0 3300 м
[средняя]
+3.0 +2.0 93 -2 -2 980.9
ЮВ 4 11 км 10/0 2850 м
[средняя]
+4.0 +1.0 81 -1 -1 980.2
ЮВ 4 11 км 10/0 2850 м
[средняя]
+4.0 +1.0 81 -1 -1 979.9
ЮВ 4 11 км 10/0 2850 м
[средняя]
+4.0 +1.0 81 -1 -1 979.2
ЮВ 4 11 км 10/0 2850 м
[средняя]
+4.0 +1.0 81 -1 -1 978.9
Ю 4 11 км 10/8 1050 м
[средняя]
+4.0 +1.0 81 -1 -1 978.9
ЮВ 5 8 км слабый дождь 10/10 1050 м +4.0 +2.0 87 -2 -2 978.3
Ю 4 8 км дождь 10/10 1380 м +4.0 +2.0 87 -1 -1 977.9
Ю 4
{7}
11 км слабый дождь 10/10 600 м +4.0 +3.0 93 -1 -1 977.6
Ю 5 6 км дождь 10/10 480 м +4.0 +3.0 93 -2 -2 977.3
Ю 6 8 км слабый дождь 10/10 420 м +4.0 +3.0 93 -2 -2 976.3
Ю 7 8 км слабый дождь 10/10 420 м +4.0 +3.0 93 -2 -2 976.0
Ю 6 6 км слабый дождь 10/10 420 м +5.0 +4.0 93 -1 -1 975.3
Ю 6
{9}
5 км дождь 10/10 180 м +5.0 +4.0 93 -1 -1 974.7
Ю 5
{8}
8 км слабый дождь 10/10 180 м +5.0 +5.0 100 -1 -1 974.0
Ю 6
{9}
8 км дождь 10/10 180 м +5.0 +5.0 100 -1 -1 973.7
Ю 6 5 км дождь 10/10 180 м +5.0 +5.0 100 -1 -1 973.0
Ю 6
{9}
5 км сильный дождь 10/10 120 м +5.0 +5.0 100 -1 -1 972.7
Ю 6
{8}
5 км дождь 10/10 120 м +5.0 +5.0 100 -1 -1 972.0
Ю 6
{9}
5 км слабый дождь, дымка 10/10 120 м +5.0 +5.0 100 -1 -1 972.0
Ю 6
{9}
5 км слабый дождь, дымка 10/10 120 м +5.0 +5.0 100 -1 -1 971.0
Ю 4 5 км слабый дождь, дымка 10/10 180 м +5.0 +5.0 100 0 0 970.1
Местоположение метеостанции Outagamie County Regional Airport: широта 44.2500 долгота -88.5200 высота над уровнем моря 280 м.
В архиве по умолчанию представлена погода в Аплтоне за последние 1-2 суток. Обновление информации о фактической погоде в базе происходит ежечасно! Архивные данные за месяц целиком и за предыдущие месяцы Вы можете получить, выбрав интересующий диапазон дат из раскрывающегося списка и нажав кнопку "Ввод!".
Внимание! Архив погоды МЕТАР в базе сайта по станциям, не включенным в климатический монитор, хранится не более 60 дней. Нет смысла пытаться выбрать более раннюю дату.
*Определитесь, кто Вы:
Внимание! Время в таблицах - всемирное. Для получения местного времени необходимо прибавить поправку, которая равна ч.
Смотрите также архив погоды в соседних городах и на ближайших метеорологических станциях:
Партнеры нашего сайта:      
Пояснения к столбцам:
  • Ветер - указаны скорость ветра в м/с - средняя за 10 мин, порывы в срок и между сроками (в фигурных скобках) и направление, откуда дует ветер: С - северный,
  • СВ - северо-восточный, В - восточный, ЮВ - юго-восточный, Ю - южный, ЮЗ - юго-западный, З - западный, СЗ - северо-западный.
  • Видимость - горизонтальная дальность видимости в метрах или километрах. При видимости от 1 до 10 км при отсутствии осадков обычно наблюдается дымка, при ухудшении видимости до 1 км и менее - туман. В сухую погоду видимость может ухудшаться дымом, пылью или мглою.
  • Явления - указаны атмосферные явления, наблюдавшиеся в срок или в последний час перед сроком; фигурными скобками обозначены явления, наблюдавшиеся между сроками (за 1-3 часа до срока); квадратными скобками обозначены град или гололедные отложения с указанием их диаметра в мм.
  • Облачность - указаны через наклонную черту общая и нижняя облачность в баллах и высота нижней границы облаков в метрах; квадратными скобками обозначены формы облаков: Ci - перистые, Cs - перисто-слоистые, Cc - перисто-кучевые, Ac - высококучевые, As - высокослоистые, Sc - слоисто-кучевые, Ns - слоисто-дождевые, Cu - кучевые, Cb - кучево-дождевые. Подробнее классификацию облаков см. в Атласе облаков (PDF).
  • T - Температура воздуха - температура, измеренная на высоте 2 м над землей.
  • Td - Температура точки росы - температура, при понижении до которой содержащийся в воздухе водяной пар достигнет насыщения.
  • f - Относительная влажность воздуха - влажноcть воздуха, измеренная на высоте 2 м над землей.
  • Te - Эффективная температура - температура, которую ощущает одетый по сезону человек в тени. Характеристика душности погоды. При расчете учитывается влияние влажности воздуха и скорости ветра на теплоощущения человека.
  • Tes - Эффективная температура на солнце - температура, которую ощущает человек, с поправкой на солнечный нагрев. Характеристика знойности погоды. Зависит от высоты солнца над горизонтом, облачности и скорости ветра. Ночью, в пасмурную погоду, а также при ветре 12 м/с и более поправка равна нулю.
  • P - Атмосферное давление - приведенное к уровню моря атмосферное давление.
  • Po - Атмосферное давление - измеренное на уровне метеостанции атмосферное давление.
  • Tmin - Минимальная температура - минимум температуры воздуха на высоте 2 м над землей.
  • Tmax - Максимальная температура - максимум температуры воздуха на высоте 2 м над землей.
  • R - Количество осадков - Количество выпавших осадков за период времени, мм. При наведении курсора мыши на число - период времени, за который выпало указанное количество осадков.
  • R24 - Количество осадков - Количество выпавших осадков за 24 часа, мм.
  • S - Снежный покров - Высота снежного покрова, см. При наведении курсора мыши на число - состояние снежного покрова и степень покрытия местности в баллах.